OPS 4682 DEB, 38460

Orbit data source: Space-Track

OPS 4682 DEB, 38460 is space debris in LEO originally from a launch on Sat, 03 Apr 1965 UTC launched from the Air Force Western Test Range (AFWTR). Debris objects in space refer to the collection of defunct objects orbiting the Earth. Examples of debris include non-operational satellites, rocket bodies, and fragments generated from explosions, collisions, or faulty payload assembly.

Loading next visibility...
Identifier
38460, 1965-027FR
Orbit
LEO
Country
Flag of USUS
Related business
Manufacturer
Unknown
Mission
Spacecraft
Bus & Motor
Unknown
Mass
Unknown
Launch date (UTC)
1965-04-03 (61 years ago)
Launch vehicle
Unknown
Launch site
Air Force Western Test Range (AFWTR)
Object type
Payload
Rocket body
Debris
Shape & HBR
Unknown shape, 0.1 m
Radar Cross Section
Medium (>0.1 m² and <1 m²)

Expand to show TLE details & history
Last TLE update: 2 days ago

TLE from 2 days ago
0 OPS 4682 DEB
1 38460U 65027FR  26261.55296677 -.00000044  00000-0 -18208-3 0  9997
2 38460  90.2392   4.4953 0027238 331.2418  88.4566 12.95226918767694
Epoch: 2026-09-18T13:16Z
TLE epoch observation values (Epoch: 2026-09-18T13:16:16.328Z)
Latitude
60.09668°
Longitude
167.53921°
Altitude
1,290.63 km
Speed
7.217 km/s
True Right ascension
00h 16m 19s
True Declination
59° 57' 29"
Sunlit
Object was in daylight at epoch
Visualization orbit readout
Latitude
Unknown
Longitude
Unknown
Altitude
Unknown
Speed
Unknown
Apparent Right ascension
Unknown
Apparent Declination
Unknown
Sunlit
N/A
Visualization observer readout
Local Sidereal Time
10:57:17
Azimuth
Unknown
Elevation
Unknown
Doppler factor
Unknown
Orbital elements
Apogee altitude
1,298.833 km
Perigee altitude
1,257.126 km
Semi-major axis
7,656.116 km
Eccentricity
0.00272
Inclination
90.2392°
RAAN
4.4953°
Arg. of periapsis
331.2418°
True anomaly
88.76864°
Mean anomaly
88.4566°
Eccentric anomaly
88.61262°
Mean motion
3.23989 °/min
Orbital period
111.11 mins
BSTAR
-0.00018208
Loading maneuver chart data...
Computing Atmospheric mass density...
Loading historical data...
Loading historical data...
Loading historical data...
Loading historical data...
Loading historical data...
Loading historical data...
Loading historical data...

Documentation

Showing up to 5 results
|